Regional Weather Roundup
Issued by NWS Charleston, WV

Home | Current Version | Previous Version | Graphics & Text | Print | Product List | Glossary On
Versions: 1 2 3 4 5 6 7 8 9 10 11 12 13 14 15 16 17 18 19 20 21 22 23 24 25 26 27 28
000
ASUS41 KRLX 271810
RWRRLX
West Virginia Regional Weather Roundup
National Weather Service Charleston WV
200 PM EDT SAT MAY 27 2017

Note: "fair" indicates few or no clouds below 12,000 feet with no
significant weather and/or obstructions to visibility.

WVZ003-271900-
Northern Panhandle of West Virginia

CITY           SKY/WX    TMP DP  RH WIND       PRES   REMARKS
WHEELING       CLOUDY    68  61  78 N3        29.91S
$$

WVZ009-271900-
Northwest West Virginia

CITY           SKY/WX    TMP DP  RH WIND       PRES   REMARKS
PARKERSBURG    PTSUNNY   77  66  68 SW8       29.90S
$$

WVZ006-271900-
Western West Virginia

CITY           SKY/WX    TMP DP  RH WIND       PRES   REMARKS
HUNTINGTON     PTSUNNY   79  67  66 SW8       29.90F
$$

WVZ015-271900-
West Central West Virginia

CITY           SKY/WX    TMP DP  RH WIND       PRES   REMARKS
CHARLESTON     PTSUNNY   78  65  63 SW12      29.90F
$$

WVZ022-031-271900-
North Central West Virginia

CITY           SKY/WX    TMP DP  RH WIND       PRES   REMARKS
CLARKSBURG     CLOUDY    72  65  78 SW7       29.90S
MORGANTOWN     CLOUDY    70  62  76 VRB3      29.91S
$$

WVZ025-035-042-045-271900-
Southern West Virginia

CITY           SKY/WX    TMP DP  RH WIND       PRES   REMARKS
BECKLEY        CLOUDY    74  62  66 VRB7      29.99S
LOGAN          CLOUDY    75  68  78 CALM      29.95S
BLUEFIELD      PTSUNNY   72  61  68 W10G21    30.02F
LEWISBURG      CLOUDY    75  61  62 W9        29.97S
$$

WVZ047-271900-
Northern Mountains of West Virginia

CITY           SKY/WX    TMP DP  RH WIND       PRES   REMARKS
ELKINS         LGT RAIN  68  63  84 SW7       29.95S
$$

WVZ052-271900-
Eastern Panhandle of West Virginia

CITY           SKY/WX    TMP DP  RH WIND       PRES   REMARKS
MARTINSBURG    CLOUDY    66  60  81 SE3       29.90F
PETERSBURG     CLOUDY    69  63  82 CALM      29.92S
$$




USA.gov is the U.S. government's official web portal to all federal, state and local government web resources and services.